Location: Slidell
(30.2789°N, 89.7378°W)
Time: 05:44:48
(UTC-05:00)

Daily predictions for brighter satellites

Satellite Brightness Start Highest point End
(mag) Time Altitude Azimuth Time Altitude Azimuth Time Altitude Azimuth
Cosmos 1980 Rocket 4.1 00:37:19 10° NNW 00:39:36 25° NNW 00:39:36 25° NNW
Cosmos 2322 Rocket 4.1 00:45:38 10° N 00:48:24 25° NNE 00:48:24 25° NNE
USA 234 4.0 01:32:58 47° N 01:32:58 47° N 01:37:43 10° NW
SL-16 R/B 4.1 01:33:53 10° NNW 01:35:59 24° NNW 01:35:59 24° NNW
Lacrosse 5 rocket 4.5 01:40:42 10° N 01:42:28 14° NNE 01:42:28 14° NNE
NOSS 3-1 (A) 4.4 01:36:04 10° NNW 01:43:50 59° ENE 01:44:04 59° ENE
Lacrosse 5 4.1 01:57:20 21° N 01:57:20 21° N 01:59:31 10° NNE
COSMOS 2428 4.3 02:06:55 10° N 02:11:53 29° ENE 02:12:00 29° ENE
Cosmos 2360 Rocket 3.7 02:20:13 10° NNW 02:22:59 30° NNW 02:22:59 30° NNW
Cosmos 1725 Rocket 4.4 02:23:09 10° N 02:28:17 59° NNE 02:28:17 59° NNE
Cosmos 2333 Rocket 4.1 02:40:39 10° N 02:45:19 25° ENE 02:49:16 13° ESE
Resurs 1-4 Rocket 3.3 02:42:22 10° NNE 02:46:41 36° E 02:46:41 36° E
CZ-2D R/B 3.1 02:46:34 10° NNE 02:50:52 39° E 02:50:52 39° E
SL-16 R/B 3.5 02:52:25 29° ESE 02:54:47 41° ENE 03:00:30 10° N
Cosmos 2297 Rocket 3.0 02:58:57 43° E 02:58:57 43° E 03:03:59 10° NE
ADEOS 4.3 02:57:25 10° NNE 03:02:04 47° E 03:02:04 47° E
IRS-1C 4.5 03:04:07 10° N 03:08:30 59° NNW 03:08:30 59° NNW
ATLAS 3B CENTAUR R/B 3.3 03:05:23 39° WSW 03:11:00 77° S 03:16:59 10° E
Cosmos 2219 Rocket 2.7 03:06:51 10° N 03:12:27 56° ENE 03:13:56 43° ESE
Cosmos 1626 4.2 03:15:14 27° NNE 03:15:14 27° NNE 03:17:10 10° NNE
COBE Rocket 4.3 03:12:18 10° NNE 03:16:02 56° NNE 03:16:02 56° NNE
Cosmos 1741 Rocket 4.5 03:17:21 52° ESE 03:17:25 53° ESE 03:22:36 10° NNE
GPS 2-04 Rocket1 4.3 03:19:42 36° NNE 03:19:42 36° NNE 03:22:54 10° ENE
Hubble Space Telescope 3.4 03:23:16 13° ESE 03:23:16 13° ESE 03:23:46 10° ESE
Cosmos 1140 Rocket 3.7 03:20:46 64° NNW 03:20:46 64° NNW 03:25:19 10° NNE
CZ-3A R/B 3.1 03:21:54 42° SSE 03:21:54 42° SSE 03:36:04 10° E
Cosmos 2237 Rocket 3.5 03:19:28 10° N 03:24:42 38° ENE 03:29:53 10° SE
Meteor 2-12 Rocket 4.3 03:21:35 10° N 03:27:45 81° W 03:28:18 73° SSW
Cosmos 614 Rocket 4.0 03:28:51 74° NNW 03:28:51 74° NNW 03:33:45 10° NNE
ATLAS 2AS CENTAUR R/B 3.0 03:27:17 10° NNW 03:35:10 74° ENE 03:42:20 10° SE
Cosmos 2227 Rocket 2.2 03:35:24 62° WNW 03:35:32 62° WNW 03:41:09 10° NNE
ARIANE 5 R/B 2.5 03:39:04 10° N 03:44:03 59° WNW 03:44:03 59° WNW
Tsikada Rocket 4.3 03:46:05 29° SSE 03:49:23 63° E 03:55:41 10° NNE
Cosmos 2058 4.4 03:50:53 26° NW 03:50:53 26° NW 03:53:11 10° NNW
Cosmos 1633 Rocket 4.1 03:48:51 32° SE 03:50:13 42° E 03:54:21 10° NNE
USA 215 4.4 03:45:46 10° ENE 03:51:30 32° SE 03:54:42 22° S
ADEOS Rocket 3.8 03:44:48 10° N 03:51:56 51° WNW 03:54:18 39° WSW
Meteor 1-27 4.2 03:48:30 10° NNW 03:54:15 64° W 03:55:27 51° SW
COSMOS 2428 4.1 03:51:08 10° NW 03:53:57 23° WNW 03:53:57 23° WNW
Sich 1 3.3 03:56:29 48° SSE 03:57:30 66° E 04:01:52 10° NNE
Cosmos 2082 4.2 04:02:06 38° W 04:02:58 41° WNW 04:08:15 10° N
DELTA 2 R/B (1) 3.7 04:02:06 44° W 04:03:50 70° NNW 04:09:23 10° ENE
Intelsat 5-2 Rocket 4.2 04:09:19 29° SSE 04:09:19 29° SSE 04:13:59 10° ESE
Lacrosse 4 Rocket 1.8 04:12:56 37° SSE 04:14:11 55° ESE 04:18:14 10° NNE
Cosmos 1455 2.1 04:10:27 10° NNW 04:14:17 63° W 04:14:26 62° WSW
Cosmos 2208 Rocket 4.2 04:12:30 10° NNW 04:17:42 72° ENE 04:22:55 10° SSE
MOZ.5/SAFIR/RUBIN 5/SL-8 3.7 04:15:12 25° S 04:17:56 79° WSW 04:22:42 10° NNW
CZ-2D R/B 3.6 04:14:44 10° N 04:18:38 49° WNW 04:19:08 46° W
BREEZE M DEB (TANK) 2.8 04:19:55 44° S 04:20:25 50° SE 04:22:44 10° ENE
Resurs 1-4 Rocket 3.5 04:22:56 10° NNW 04:26:48 21° WNW 04:27:46 20° W
APEX 4.4 04:26:25 31° SW 04:29:08 64° WNW 04:35:55 10° NNE
Cosmos 2333 Rocket 2.8 04:24:28 10° NW 04:29:32 34° WSW 04:31:07 29° SW
Cosmos 1707 Rocket 3.5 04:26:37 10° NNW 04:30:56 63° W 04:33:29 24° SSW
CZ-2D R/B 3.6 04:27:38 10° NNW 04:31:11 19° WNW 04:32:12 18° W
UNKNOWN OBJECT B 4.0 04:28:21 10° NNW 04:31:44 26° WNW 04:32:06 26° W
GOES 2 Rocket 4.2 04:27:29 25° WSW 04:32:22 70° S 04:38:27 10° E
CZ-3 R/B 3.7 03:47:58 10° W 04:34:13 84° S 04:43:18 10° E
GPS 2-15 Rocket1 4.5 04:36:26 21° S 04:36:48 21° S 04:40:20 10° SE
SL-16 R/B 3.5 04:37:30 23° WSW 04:38:26 24° W 04:43:15 10° NW
Cosmos 1666 Rocket 4.3 04:38:04 29° WSW 04:39:17 34° W 04:43:19 10° NNW
MOS 1 Rocket 4.2 04:36:54 10° N 04:41:35 37° WNW 04:44:10 23° WSW
ADEOS II 2.2 04:37:33 10° NNE 04:42:49 77° ESE 04:48:04 10° S
Cosmos 2297 Rocket 3.7 04:40:46 17° W 04:42:51 20° WNW 04:46:55 10° NNW
GPS 2-17 Rocket1 4.4 04:46:46 19° SSW 04:47:54 20° S 04:51:09 10° SE
Cosmos 1980 4.4 04:43:38 10° NW 04:48:32 30° WSW 04:52:49 13° SSW
Cosmos 1862 Rocket 4.4 04:44:54 10° N 04:49:08 51° E 04:53:18 10° SSE
Cosmos 1933 Rocket 3.5 04:45:10 13° S 04:49:10 86° W 04:53:39 10° N
IRS-1C Rocket 4.3 04:47:42 10° NNE 04:52:59 74° ESE 04:58:14 10° S
FUSE 4.3 04:50:18 20° WSW 04:53:34 44° S 04:58:36 10° ESE
Cosmos 1634 Rocket 4.1 04:47:38 10° N 04:53:50 81° E 05:00:00 10° S
Cosmos 2219 Rocket 3.8 04:52:56 10° WNW 04:55:32 14° W 04:55:32 14° W
Aureole 2 Rocket 4.3 04:53:29 10° NW 04:56:20 18° W 04:56:29 18° WSW
Meteor 2-10 Rocket 4.3 04:51:39 10° N 04:56:31 51° E 05:01:25 10° SSE
GPS 2-04 Rocket1 3.8 04:55:06 10° WNW 04:59:10 47° N 05:03:20 10° E
Okean O Rocket 1.5 04:55:38 10° N 04:59:57 70° WNW 05:04:16 10° SSW
Hubble Space Telescope 1.7 04:58:41 20° WSW 05:00:39 29° SSW 05:04:15 10° SE
GP-B 3.1 04:58:36 10° N 05:03:04 88° E 05:07:30 10° S
Cosmos 2227 4.3 04:58:35 13° SSW 05:03:44 68° WNW 05:09:29 10° NNE
CZ-4B R/B 3.2 05:01:31 10° N 05:05:51 54° WNW 05:09:58 10° SSW
Meteosat 1 Rocket2 3.5 05:03:55 17° SW 05:06:20 34° SSE 05:09:40 10° E
SL-16 R/B 2.2 05:00:59 10° NNW 05:06:35 63° WSW 05:12:08 10° S
Cosmos 1400 Rocket 2.7 05:03:13 10° S 05:07:05 86° W 05:11:00 10° N
CZ-4B R/B 3.1 05:02:55 10° N 05:08:14 80° WNW 05:13:37 10° SSW
Cosmos 2237 Rocket 3.4 05:04:16 10° NW 05:08:24 21° W 05:12:30 10° SSW
Cosmos 1763 Rocket 4.4 05:06:39 10° N 05:11:45 52° ENE 05:16:46 10° SSE
Tiangong 2 3.4 05:12:52 10° SSW 05:12:52 10° SSW 05:12:55 10° SSW
CZ-4B DEB 4.3 05:11:07 10° N 05:16:30 64° WNW 05:21:53 10° SSW
ISS -1.9 05:15:58 10° NNW 05:19:00 35° NE 05:22:01 10° ESE
ATLAS 2AS CENTAUR R/B 4.1 05:20:36 10° WNW 05:25:11 17° WSW 05:29:32 10° SW
Cosmos 332 Rocket 3.8 05:20:24 10° NNW 05:25:15 82° WSW 05:30:06 10° SSE
ATLAS 5 CENTAUR R/B 2.2 05:20:53 10° SSW 05:25:21 60° ESE 05:30:07 10° NE
Okean-O 3.6 05:21:05 10° NNE 05:25:24 50° E 05:29:41 10° S
NOSS 3-4 (A) 4.1 05:19:09 10° NNW 05:26:24 83° ENE 05:34:04 10° SSE
NOSS 3-4 (C) 4.1 05:19:16 10° NNW 05:26:30 82° ENE 05:34:09 10° SSE
OAO 3 Rocket 3.8 05:25:40 10° SW 05:30:26 51° SSE 05:35:10 10° ENE
Meteor 1-31 Rocket 2.9 05:26:47 10° NNE 05:30:44 81° ESE 05:34:38 10° S
Meteor 1-26 Rocket 4.3 05:26:28 10° N 05:32:13 88° W 05:37:51 10° S
USA 215 3.6 05:28:14 10° NNE 05:34:33 54° NW 05:40:50 10° WSW
Cosmos 1869 Rocket 3.8 05:30:10 10° S 05:34:38 81° E 05:39:07 10° N
